Temp
14 15 15 14 15 15 15 16 17 17 18 18 18 17 17 17 17 17 16 16 16 16 16 16 16 16 16 15 15 15 15 15 14 14 14 14 13 13 13 13 13 13 13 13 13 13 13 13 13 13 13 13 13 13 13 13 13 14 13 13 14 14 14 14 14 13 14 14 15 14 14 14 14 14 14 14 14 14 14 14 14 14 14 14 15
14 14 14 14 14 14 15 15 16 17 17 18 17 17 17 17 17 17 16 16 16 16 16 16 16 16 16 16 16 15 15 15 15 14 14 13 13 13 13 13 13 13 13 13 13 13 13 13 13 13 13 13 13 13 13 12 12 13 13 13 13 13 14 14 13 13 13 13 14 13 13 13 13 13 13 13 13 13 13 13 13 13 14 14 14
15 14 14 14 14 14 14 15 16 16 16 17 17 17 17 17 17 17 16 16 16 16 16 16 16 16 16 16 16 16 15 15 15 14 14 13 13 13 13 13 12 12 13 13 13 13 13 13 12 12 12 12 12 12 12 12 12 12 12 12 12 12 12 12 12 12 12 12 12 12 12 12 12 12 12 12 12 13 13 13 13 13 13 13 13
15 15 14 14 14 15 14 14 14 15 15 15 16 16 17 17 17 16 16 16 16 16 16 16 16 16 16 16 16 16 15 15 14 14 14 13 13 13 13 13 12 12 12 12 12 12 12 12 12 12 12 12 11 11 11 11 11 11 11 11 11 11 11 11 11 11 10 10 11 11 11 11 11 11 12 12 12 12 12 13 13 13 13 13 13
15 15 14 14 14 14 14 14 14 15 15 15 15 15 16 16 17 16 16 16 16 16 16 17 16 16 16 16 16 16 15 15 14 14 14 13 13 13 12 12 12 12 12 12 12 12 12 12 12 12 12 11 11 11 11 11 11 11 10 10 10 10 10 10 10 10 10 10 10 10 10 10 11 11 11 12 12 12 12 12 12 12 12 12 12
15 15 14 14 14 14 14 14 15 15 15 15 14 14 15 15 16 16 16 16 16 16 16 17 17 16 16 16 16 16 15 15 14 14 14 13 13 13 12 12 12 12 11 11 12 12 12 11 11 11 11 11 10 10 10 10 10 10 10 9 9 9 9 9 9 9 9 10 10 10 10 10 11 11 11 11 11 11 12 12 12 11 11 11 11
15 15 14 14 14 13 14 14 15 15 15 15 15 15 14 14 15 15 16 16 16 16 16 16 17 16 16 16 16 16 15 15 14 14 13 13 13 13 12 12 12 11 11 11 11 11 11 11 11 10 10 10 9 9 9 9 9 9 9 8 8 8 8 9 9 9 9 9 9 9 10 10 10 11 11 11 11 11 11 11 10 10 10 10 10
15 15 14 14 13 13 13 14 14 15 15 15 15 15 14 14 14 14 15 15 15 15 15 15 16 16 16 16 16 15 15 14 14 13 13 13 13 12 12 12 11 11 11 11 11 11 11 11 11 10 9 9 8 8 8 8 8 8 8 7 7 7 7 8 8 8 8 9 9 9 9 10 10 10 10 10 10 10 10 9 9 9 9 9 9
15 14 14 14 13 13 13 13 13 14 14 14 14 14 14 14 14 14 14 14 14 14 15 15 15 16 16 16 15 15 14 14 14 13 13 13 12 12 12 11 11 11 11 11 11 11 11 11 10 10 8 8 7 7 7 7 7 7 7 7 6 6 7 7 7 7 8 8 8 8 9 9 10 10 10 9 9 9 9 9 8 8 8 8 8
15 15 14 14 13 13 13 13 13 13 13 13 13 13 13 13 13 13 14 14 14 14 14 15 15 15 15 15 15 14 14 14 13 13 13 12 12 11 11 11 11 11 11 11 11 10 10 10 10 9 8 7 7 7 7 7 7 7 6 6 6 6 6 6 7 7 7 8 8 8 8 9 9 9 9 9 9 8 8 8 8 8 8 8 8
15 15 15 14 14 13 13 13 13 12 12 12 12 12 13 13 13 13 14 14 14 14 14 14 15 15 15 15 15 14 14 13 13 13 12 12 12 11 11 10 10 10 10 10 10 10 10 10 9 9 8 7 7 7 7 7 7 7 6 6 6 6 6 6 7 7 7 7 7 8 8 8 8 8 8 8 8 7 7 7 7 7 7 7 7
15 15 15 15 15 14 13 13 13 12 12 12 12 12 12 13 13 14 14 14 14 14 14 14 14 14 14 14 14 14 13 13 13 12 12 11 11 11 10 10 9 10 10 10 10 10 10 9 8 8 7 7 7 7 7 7 7 7 6 7 7 6 6 6 6 6 7 7 7 7 7 7 7 7 7 7 7 6 6 6 7 7 6 6 7
15 14 14 14 14 14 14 13 13 13 12 12 12 12 12 12 13 13 13 13 13 13 13 13 13 13 13 14 14 14 13 13 12 12 11 11 11 11 10 9 9 10 10 10 10 10 9 8 8 7 7 7 7 7 7 7 7 7 7 7 7 7 7 7 6 7 7 6 7 7 7 7 7 7 7 7 6 6 6 6 6 6 6 6 6
16 15 14 14 14 14 14 14 13 13 13 13 13 12 12 12 13 13 13 13 13 12 12 12 12 13 13 13 13 13 13 13 12 12 11 11 11 11 10 9 9 9 10 10 10 9 8 8 8 7 7 7 7 7 7 7 7 7 6 7 7 8 8 8 7 7 7 6 7 7 7 7 7 7 7 6 6 6 6 6 6 6 6 6 6
15 15 14 14 14 14 14 13 13 13 13 13 13 12 12 12 12 12 12 12 12 12 12 12 12 12 13 13 13 13 13 12 12 11 11 11 11 10 10 9 9 9 9 9 9 8 8 7 7 7 7 7 7 7 7 7 7 6 6 7 8 9 9 9 9 8 7 7 7 6 7 7 7 7 7 6 6 6 6 6 6 6 6 6 6
15 15 14 15 15 15 14 14 13 13 13 13 13 12 12 12 12 12 12 12 12 12 12 12 12 12 12 13 13 13 12 12 12 11 11 11 11 10 10 9 9 9 9 9 9 8 8 7 7 7 7 7 7 7 7 7 7 6 6 7 8 9 9 9 9 9 8 7 7 7 7 8 8 7 7 7 6 6 6 6 6 6 6 7 7
16 15 15 15 15 14 14 14 14 13 13 13 13 12 12 12 12 12 12 11 11 12 12 12 12 12 12 12 12 12 12 11 11 11 11 11 10 10 10 9 9 9 10 10 9 9 8 8 8 8 7 7 7 7 7 7 7 6 7 7 8 8 9 9 9 8 7 7 8 8 8 8 8 8 8 7 7 6 6 6 6 6 6 7 7
16 16 16 16 15 15 14 14 13 13 13 13 13 13 13 12 12 12 12 11 11 11 11 11 11 11 11 12 12 12 12 11 11 11 11 11 10 10 10 9 9 10 11 10 10 9 9 9 8 8 8 7 7 7 7 7 7 6 6 7 7 8 9 8 8 7 7 8 8 8 9 9 9 9 9 9 8 7 6 6 6 6 6 6 7
16 16 16 16 16 15 15 14 14 14 13 12 13 13 13 12 12 12 11 11 11 11 11 11 11 11 11 11 12 12 12 11 11 11 11 10 10 10 10 9 9 10 11 11 10 9 9 9 9 8 8 8 7 7 7 7 7 6 6 6 7 7 8 8 8 7 8 8 9 9 9 9 9 10 10 9 9 8 7 7 7 6 6 6 7
16 16 16 16 16 15 15 15 15 14 14 13 12 13 13 13 12 12 11 11 11 11 11 11 11 11 11 12 12 12 12 11 11 11 10 10 10 10 10 9 9 10 11 11 11 10 10 9 9 9 8 8 8 8 7 7 7 7 6 6 6 7 7 7 7 7 8 8 9 9 9 10 10 11 10 9 8 8 7 7 7 6 6 6 6
16 16 16 16 16 16 15 15 15 14 14 14 13 12 13 13 12 12 11 11 11 11 11 10 10 11 11 12 12 12 12 12 11 11 11 10 10 10 10 10 9 10 11 12 12 11 11 10 9 9 9 8 8 8 7 7 7 7 7 6 6 6 6 7 7 7 7 8 8 9 10 10 11 11 11 10 9 8 8 8 7 7 6 6 6
16 16 16 16 15 15 15 15 15 14 14 14 13 12 13 13 12 12 12 11 11 11 10 10 10 10 11 11 11 11 11 12 11 11 11 10 10 9 10 10 9 9 10 11 12 12 11 11 10 9 9 8 8 7 7 7 7 7 7 6 6 6 6 7 7 7 8 8 8 9 10 11 11 11 10 10 9 9 8 8 7 7 7 6 5
15 16 16 15 15 15 15 16 15 15 15 14 13 13 12 12 12 12 12 11 11 11 10 10 10 10 10 10 11 11 11 11 11 11 10 10 9 9 9 10 10 9 9 10 10 10 10 10 10 9 8 8 7 7 7 7 7 7 7 7 6 6 6 7 7 8 8 8 8 10 11 11 11 11 10 10 9 9 8 7 7 7 7 6 5
15 15 15 15 15 15 15 15 16 16 15 15 14 13 12 11 12 12 12 11 11 11 10 10 10 10 10 10 10 10 10 10 10 11 10 9 9 9 9 10 9 9 9 9 9 9 9 9 9 8 7 7 7 7 7 7 7 7 7 7 6 6 7 7 7 7 8 8 9 10 10 10 11 10 10 9 9 8 8 7 7 7 6 6 5
15 15 15 15 15 15 15 15 15 16 15 15 14 14 13 12 11 11 11 11 11 11 11 10 10 10 10 10 10 10 10 10 10 10 10 9 9 9 9 9 9 9 9 9 8 8 8 8 7 7 7 7 7 7 7 7 7 7 7 6 6 6 7 7 7 7 8 9 10 10 10 10 10 10 10 10 9 8 8 8 7 6 6 5 5
15 15 15 14 14 14 15 15 15 15 15 15 14 14 14 13 12 11 11 11 11 11 11 11 11 10 10 10 10 10 10 10 10 10 9 9 9 9 8 8 8 8 8 8 8 7 7 7 7 7 7 7 7 7 7 7 7 6 6 6 6 7 7 7 7 8 8 9 9 10 10 10 10 10 10 10 9 8 8 8 7 6 6 5 5
14 14 14 14 14 14 14 14 15 15 15 15 15 14 14 13 12 12 11 11 11 11 11 11 11 11 10 10 10 10 10 10 9 9 9 9 9 9 8 8 8 8 8 8 8 7 7 7 7 7 7 7 7 7 7 7 7 6 6 7 7 7 7 7 8 8 8 8 9 9 9 9 9 10 10 10 9 8 8 7 7 6 6 6 5
14 14 14 14 14 14 14 14 14 15 15 15 15 14 14 13 12 12 12 12 11 11 11 11 11 11 11 10 10 10 10 10 9 9 9 9 9 8 8 8 8 8 8 8 8 7 7 7 7 7 7 7 7 7 7 7 7 7 7 7 7 8 8 8 8 8 8 8 9 9 9 9 9 10 10 10 10 9 8 7 7 7 6 6 5
13 13 13 13 13 14 14 14 13 14 14 14 14 14 14 14 13 13 13 13 12 12 11 11 11 11 11 11 11 10 10 10 10 9 9 9 9 9 9 8 8 8 8 8 8 7 7 7 6 6 6 6 6 7 7 7 7 7 7 7 8 8 8 8 9 9 8 8 8 8 9 9 9 10 10 10 10 9 8 8 8 7 7 6 5
13 13 13 13 13 13 13 13 13 13 13 13 14 14 14 13 13 13 12 12 12 12 12 11 12 12 11 11 11 11 10 10 10 10 10 9 9 9 9 9 8 8 8 8 7 7 7 7 7 7 7 6 7 7 7 7 7 8 8 8 9 9 9 9 9 9 8 8 8 8 9 9 9 10 10 10 10 9 8 8 8 7 7 6 5
12 12 12 13 13 13 13 13 13 13 13 13 13 13 12 12 12 12 12 11 11 11 12 12 12 12 12 11 11 11 11 10 10 10 10 10 9 9 8 8 8 8 7 7 7 7 8 8 8 8 8 8 8 8 9 9 9 9 9 9 9 9 9 9 9 8 8 8 8 8 9 9 9 9 9 10 10 10 9 8 8 7 6 6 5
12 12 12 12 12 12 12 12 12 12 12 13 13 12 12 11 11 11 11 11 11 10 11 11 11 11 11 11 11 10 10 10 10 10 10 10 9 9 8 8 7 7 7 7 7 7 8 8 8 9 9 9 10 10 10 11 11 11 10 10 10 9 9 9 8 8 8 8 8 8 8 9 9 9 9 9 10 10 10 9 8 8 7 6 6
12 12 12 12 12 12 12 11 11 11 10 11 11 11 11 10 9 10 10 11 11 10 10 11 11 11 10 10 10 10 10 10 9 9 9 9 8 8 8 7 7 7 7 7 7 7 7 8 8 9 9 10 11 11 11 11 10 10 10 10 10 9 9 8 8 8 7 8 8 8 8 8 9 9 9 9 10 10 10 10 9 8 7 7 7
11 11 11 12 11 11 11 10 10 10 10 10 10 10 10 9 9 9 10 10 10 10 10 11 10 10 10 10 10 10 9 9 9 9 8 8 8 8 8 7 7 7 7 7 7 7 7 7 8 8 9 10 11 11 10 10 10 10 10 9 9 9 8 8 7 8 7 8 8 8 8 8 8 9 9 9 10 10 10 10 9 9 9 8 7
11 11 11 11 11 10 10 10 10 10 10 10 10 10 9 9 9 10 10 10 10 10 10 10 10 10 9 9 9 9 9 9 9 9 8 8 7 7 7 6 6 6 6 6 6 7 7 7 7 8 9 10 10 10 10 9 9 9 9 9 8 8 8 7 7 7 7 8 8 8 8 8 8 8 9 9 9 10 10 9 9 9 9 9 8
11 11 11 11 10 10 10 10 10 10 10 10 10 10 10 10 10 10 10 10 11 11 10 10 9 9 9 9 8 8 8 8 8 8 8 8 7 7 6 6 6 6 6 6 6 6 6 7 7 8 9 9 9 9 9 9 8 8 8 8 8 8 7 7 7 7 7 7 8 8 8 8 8 8 8 8 9 9 9 9 8 8 9 9 8
11 11 11 11 10 10 10 10 10 10 10 10 10 9 9 9 9 10 10 10 10 10 9 9 8 8 7 7 7 7 7 7 7 7 7 7 6 6 6 6 6 5 5 5 6 6 6 7 7 8 9 9 9 9 9 8 8 8 8 8 8 8 7 7 7 7 7 7 7 8 8 8 8 8 8 8 8 9 9 8 8 8 8 9 9
10 11 10 10 10 10 10 10 10 10 10 10 9 9 9 9 9 10 10 10 9 9 9 8 8 7 6 6 6 6 5 5 5 4 4 5 5 5 5 6 5 5 6 6 6 6 6 7 7 8 9 9 9 9 9 8 8 8 8 8 8 8 7 7 7 7 7 7 7 7 7 8 8 8 7 7 8 8 8 8 8 8 8 8 9
10 10 10 10 10 10 10 10 9 9 9 9 9 8 8 9 9 9 10 9 9 8 8 8 7 7 6 5 5 5 4 3 3 3 3 3 4 4 5 5 5 6 6 7 7 7 7 7 7 8 9 9 9 9 9 9 8 8 8 7 7 7 7 7 7 7 7 7 7 7 7 7 7 7 7 7 7 7 8 8 8 8 8 8 8
10 10 10 10 10 10 10 10 9 9 9 9 8 8 9 9 9 9 9 9 9 8 8 7 7 6 6 5 5 4 3 3 3 2 3 3 4 4 5 5 5 6 7 8 8 8 8 8 8 9 9 10 9 9 9 9 8 8 8 8 7 7 7 7 7 7 6 6 7 7 7 7 7 7 7 7 7 7 7 7 7 8 8 7 7
9 10 10 10 10 10 9 9 9 9 10 9 8 8 9 9 9 9 9 9 9 8 8 7 6 6 5 5 5 4 3 3 2 2 3 4 4 4 4 5 5 6 6 7 9 9 9 9 9 9 10 10 9 9 9 9 8 8 8 8 7 7 7 7 7 7 7 6 6 7 6 6 6 7 7 7 7 7 7 7 7 7 7 7 7
9 9 10 10 10 10 9 9 9 9 9 9 9 9 8 8 8 8 8 9 9 8 8 7 6 6 5 5 4 4 3 2 2 2 2 3 4 4 4 5 5 5 6 7 8 9 10 10 10 10 10 10 9 9 9 8 8 8 8 8 7 7 7 7 7 7 6 6 6 6 6 6 6 7 7 7 7 7 7 7 7 7 7 7 7
8 9 9 10 10 10 10 9 9 9 8 8 8 9 8 8 8 8 8 8 8 9 8 8 7 6 5 5 4 3 2 2 2 2 2 3 4 4 5 5 5 5 5 6 8 9 10 10 10 10 10 9 9 9 8 8 8 8 8 7 7 7 7 7 6 6 6 6 6 6 6 6 6 6 6 6 6 7 7 7 7 7 7 6 6
8 9 9 9 10 10 10 10 10 10 9 9 9 8 9 9 9 8 8 8 8 8 8 8 7 6 5 5 4 3 3 2 2 2 2 3 4 4 4 5 4 5 5 6 7 8 9 10 10 10 10 9 9 8 8 8 8 7 7 7 7 7 7 7 6 6 6 5 5 5 5 5 6 6 6 6 6 6 6 7 7 7 6 6 6
8 9 9 9 9 10 10 10 10 10 10 10 10 9 9 9 9 9 9 9 8 8 8 8 7 6 6 5 4 3 3 3 3 2 2 3 4 4 4 5 5 5 6 7 7 8 9 10 10 9 9 9 9 8 8 8 7 7 7 7 7 7 6 6 6 6 6 5 5 5 5 5 5 6 6 6 6 6 6 6 6 6 6 6 6
8 9 9 9 9 10 10 10 10 10 10 10 10 10 10 10 9 9 9 9 8 8 8 7 7 6 6 5 4 4 4 4 4 3 3 3 4 4 5 5 5 6 7 7 8 9 10 10 10 9 9 9 8 8 8 7 7 7 7 7 7 7 6 6 6 6 5 5 5 5 5 5 5 6 6 6 5 6 6 6 6 6 6 6 5
8 9 9 9 9 10 10 10 10 10 10 10 10 10 10 10 9 8 8 8 8 8 7 7 7 6 6 5 5 4 4 4 4 4 4 4 4 4 5 5 5 6 7 8 9 10 10 10 9 9 9 8 8 8 7 7 7 7 7 7 7 6 6 6 6 5 5 5 5 5 5 5 5 5 6 6 5 5 6 5 5 5 5 5 5
8 9 9 9 9 9 10 10 10 10 10 10 10 10 10 10 10 9 8 8 8 8 7 7 7 6 6 5 5 5 4 4 4 4 4 4 4 5 5 5 5 6 7 8 9 10 10 9 9 9 8 8 8 7 7 7 6 6 6 6 6 6 6 5 5 5 5 5 5 5 6 6 5 5 5 5 5 5 5 5 5 4 4 4 4
8 9 9 9 9 9 10 10 10 10 10 10 10 10 10 10 10 9 9 8 8 7 7 7 7 7 6 6 5 5 5 4 4 5 5 5 5 5 5 5 5 6 7 8 9 10 10 9 9 8 8 8 7 7 7 6 6 6 6 6 6 6 5 5 5 5 5 5 5 5 5 5 5 5 5 5 5 5 4 4 4 4 4 4 4
8 9 9 9 9 9 9 9 9 9 9 9 9 10 10 10 10 9 9 8 8 7 7 6 7 7 6 6 5 5 4 4 4 4 4 5 5 5 5 5 5 6 6 7 8 9 9 9 8 8 8 7 7 7 7 6 6 6 6 5 5 5 5 5 5 5 4 4 4 5 5 5 5 5 4 4 4 4 4 4 4 4 4 4 3
8 8 8 8 8 8 8 8 8 8 8 8 8 9 9 9 9 8 8 8 8 7 7 6 6 6 6 6 5 5 5 5 5 4 4 4 5 5 5 5 5 5 6 6 7 7 8 8 7 7 7 7 7 7 7 6 6 6 5 5 5 5 5 5 5 5 4 4 4 4 5 5 5 4 4 4 4 4 4 4 4 4 4 3 3
Height
787 787 788 789 790 790 791 791 791 794 796 796 797 798 799 799 799 799 799 799 799 800 801 803 804 805 807 807 808 808 809 809 810 810 810 810 810 811 811 811 812 812 812 812 812 812 812 812 812 812 812 812 811 811 811 811 810 810 810 810 810 810 810 809 808 807 806 807 806 806 805 804 804 803 802 801 801 800 799 798 797 796 795 794 793
787 787 788 788 789 789 791 792 792 792 794 795 796 798 799 799 799 799 799 799 799 799 800 802 803 804 805 806 807 808 809 809 809 809 809 810 810 810 811 811 811 811 811 811 811 811 811 811 811 811 811 811 811 811 810 810 810 809 810 810 809 809 809 809 808 807 806 806 805 804 804 804 803 802 802 801 800 799 798 797 796 795 794 792 791
787 787 787 788 789 789 790 791 790 791 793 794 795 797 798 798 799 799 799 799 798 798 799 801 802 803 804 805 806 807 808 809 809 809 809 809 809 809 810 810 811 811 811 811 811 810 810 810 810 810 810 811 810 810 810 810 810 810 809 809 809 809 809 808 808 807 806 805 805 805 804 804 803 802 802 801 800 799 797 796 795 794 793 791 790
787 787 787 787 788 788 790 790 790 791 793 794 795 796 798 798 798 799 799 799 799 798 798 799 801 802 803 804 806 806 808 808 808 809 809 808 809 809 809 810 810 810 810 810 810 810 810 810 810 810 810 810 810 810 811 810 810 810 810 810 809 809 808 808 808 808 807 806 806 805 805 804 803 802 801 800 799 798 796 795 794 793 791 790 788
787 787 787 787 787 788 789 789 790 790 791 793 794 796 796 796 797 798 798 799 799 798 798 798 800 801 802 804 805 806 807 808 808 808 808 808 808 808 809 809 810 810 810 810 810 810 810 809 809 809 809 809 810 810 810 810 810 810 810 810 810 809 809 809 809 808 808 807 806 806 806 805 803 802 801 799 798 797 795 794 793 791 790 788 787
787 787 787 787 787 787 787 788 788 789 789 790 792 794 795 795 795 796 797 797 798 797 797 798 798 799 801 803 804 805 806 807 807 807 808 808 808 808 808 808 809 809 809 809 809 809 809 809 809 809 808 808 808 809 809 810 810 810 810 810 810 810 810 809 809 809 808 807 807 806 805 804 803 802 800 799 797 796 794 793 792 791 789 788 787
788 787 787 787 787 787 786 786 787 787 787 788 789 791 793 794 795 795 796 796 796 797 797 797 797 798 799 801 803 804 805 805 806 807 807 807 807 808 807 808 808 809 809 809 809 809 809 809 809 808 808 807 807 808 808 809 809 810 809 810 810 810 810 809 809 809 808 807 807 806 805 804 803 801 800 799 797 795 794 792 790 790 789 788 787
787 787 787 787 786 786 785 785 785 786 787 787 788 789 791 793 794 794 794 794 795 796 796 796 797 797 798 800 801 803 804 804 805 806 806 807 807 807 807 807 808 808 809 808 808 808 808 808 809 808 806 807 807 807 808 808 809 809 810 810 810 810 810 809 809 809 808 807 807 806 805 803 802 800 799 798 797 796 795 794 792 790 789 788 787
786 786 786 785 785 784 784 784 784 784 785 786 787 788 788 790 791 792 793 793 793 795 795 796 796 796 797 798 800 801 803 804 804 805 805 805 806 806 806 806 807 808 808 808 807 807 807 808 808 807 806 806 806 807 807 807 808 809 809 809 810 810 810 809 809 808 808 807 806 806 804 803 801 800 799 799 798 797 796 795 794 792 790 788 786
784 784 784 783 783 782 782 782 782 783 783 783 784 785 786 788 789 789 790 791 792 793 794 795 795 795 796 797 799 801 802 802 803 803 804 804 804 804 804 805 806 807 807 807 807 807 807 807 807 807 807 806 806 806 806 807 807 808 808 809 809 810 809 809 809 808 808 807 806 805 804 803 802 801 800 800 799 798 797 796 795 793 791 788 785
782 782 782 781 781 781 780 780 780 781 781 781 782 782 783 785 786 787 788 788 790 791 792 793 794 794 795 796 799 800 800 801 802 802 803 803 803 802 803 805 806 806 807 806 806 806 806 807 807 807 807 807 807 806 806 807 807 807 807 808 808 808 808 808 808 807 807 806 806 805 805 804 803 802 801 800 799 799 798 797 796 794 792 790 787
782 782 781 780 779 778 778 778 778 778 778 779 779 779 780 782 783 784 785 786 788 789 790 791 792 793 794 796 798 798 798 799 800 801 802 802 801 801 802 803 805 806 806 806 806 805 805 806 806 806 806 806 806 806 806 806 806 806 807 806 806 807 807 807 807 806 806 806 805 805 805 804 803 802 801 800 799 799 798 798 797 795 794 792 789
780 781 781 781 779 777 775 775 775 775 776 776 777 777 778 778 779 781 782 783 785 786 788 789 790 792 793 795 796 796 796 797 799 800 800 800 799 800 801 802 804 805 805 805 805 805 805 806 806 806 806 805 805 805 805 805 805 805 806 805 804 804 805 805 805 805 805 805 804 804 804 803 803 801 800 800 798 798 798 797 796 795 794 792 790
779 779 779 780 779 777 775 774 774 773 773 774 775 775 775 775 776 778 779 780 781 783 786 788 789 791 791 793 795 794 794 796 797 798 799 798 798 798 800 801 803 804 804 804 804 804 805 805 805 805 805 805 804 805 804 804 805 805 805 804 802 802 803 803 803 803 803 803 803 803 802 801 801 799 798 798 797 796 796 795 794 793 792 791 789
779 778 778 777 777 777 776 775 775 774 773 773 773 773 773 773 773 774 776 777 778 779 782 785 788 789 789 791 793 792 793 795 796 797 797 796 796 797 799 800 801 802 803 803 803 804 804 805 804 804 804 804 804 804 803 803 804 804 804 803 802 801 801 801 800 800 801 801 801 801 800 799 799 797 797 796 796 795 795 794 793 792 791 789 787
779 778 777 776 775 775 775 774 775 775 774 772 771 770 770 771 771 772 773 775 776 777 779 782 785 786 787 788 790 790 791 794 795 796 795 795 795 796 798 799 800 801 801 801 802 803 803 804 804 803 803 803 802 802 802 802 802 803 803 802 801 801 801 799 799 799 800 800 800 799 798 797 796 795 795 795 795 794 794 793 792 792 790 788 786
779 777 776 775 774 774 774 774 774 775 774 771 769 769 769 768 769 770 771 772 774 775 777 779 781 783 784 786 788 788 789 791 793 794 794 793 794 796 797 798 798 799 799 800 800 801 802 802 802 802 802 802 801 801 801 801 801 802 802 802 801 801 800 799 799 799 799 799 798 797 796 795 794 793 793 793 793 794 793 793 792 791 790 788 786
779 777 776 774 773 773 773 773 774 774 773 771 768 767 768 767 767 768 769 770 772 774 775 777 779 781 783 785 786 786 787 789 791 792 792 792 793 795 796 797 797 797 797 797 798 798 799 800 800 801 800 800 800 800 800 800 800 801 801 801 800 800 799 798 798 798 797 797 796 795 794 792 791 790 790 791 791 792 792 792 791 791 790 789 787
779 777 776 774 773 772 772 772 772 771 772 772 770 768 767 767 767 767 768 769 770 772 773 775 777 779 781 783 784 784 784 786 788 789 790 790 792 793 795 795 796 796 795 795 795 796 796 797 798 799 799 798 799 799 798 799 799 799 800 800 799 799 797 797 796 796 795 795 794 793 792 790 788 788 788 789 790 790 791 791 791 791 790 789 787
778 777 776 774 773 772 771 771 770 769 769 770 770 769 767 766 766 766 767 768 769 770 772 773 775 776 777 779 781 782 782 783 785 787 787 789 790 792 793 794 794 794 794 793 793 793 794 795 795 796 796 796 797 797 797 798 798 798 798 798 798 797 796 795 795 794 794 793 793 791 790 788 787 787 787 787 788 789 789 790 790 790 789 788 787
778 777 776 774 773 772 770 770 769 768 767 767 767 768 767 766 766 766 766 767 768 769 770 771 773 775 775 776 777 779 779 780 782 784 785 787 789 790 791 792 792 792 792 791 791 791 791 792 792 793 793 794 795 796 796 796 796 796 796 796 796 795 794 794 794 793 793 792 791 789 788 788 787 788 787 787 787 788 788 789 789 788 788 787 786
779 777 775 773 772 771 770 769 768 767 767 766 766 767 766 765 765 765 765 766 766 767 768 770 771 773 774 774 775 775 776 777 779 781 783 785 786 788 789 789 789 790 790 790 790 790 789 789 789 790 792 793 794 794 795 795 795 795 795 794 794 794 793 793 792 792 791 790 789 789 788 788 788 788 788 788 787 787 787 788 788 788 787 786 785
778 776 774 773 771 770 768 767 766 766 766 765 765 765 765 765 765 764 764 765 766 766 767 768 769 770 771 772 773 774 774 774 776 778 780 782 784 785 786 787 787 788 789 789 789 788 787 787 788 789 791 792 792 793 793 793 793 793 793 793 792 792 792 792 791 791 790 789 788 788 788 787 787 787 787 787 787 787 787 787 787 786 786 785 784
778 775 773 772 770 769 767 765 764 764 763 764 763 763 763 765 765 765 764 765 766 766 767 767 767 768 768 769 770 772 772 772 774 776 777 779 781 783 784 784 785 786 787 788 788 787 786 787 788 789 790 791 791 791 792 792 792 792 792 791 791 790 790 790 790 790 789 788 788 787 787 787 787 787 786 787 786 785 786 786 785 785 784 784 784
777 775 773 772 770 769 766 764 763 762 761 762 762 761 761 762 764 765 765 764 764 765 766 766 767 766 766 766 767 768 769 770 770 772 774 775 777 779 781 782 783 784 785 786 786 786 786 786 787 788 789 789 789 790 790 791 791 791 791 790 790 789 789 789 789 788 788 788 787 787 786 786 786 786 785 785 785 784 784 785 784 784 784 784 783
776 774 773 771 770 768 766 764 762 761 760 760 760 760 760 759 760 762 763 764 763 763 763 764 765 765 765 765 765 765 766 766 766 768 771 773 774 776 778 779 780 781 782 783 784 784 785 785 786 786 787 787 788 788 789 789 789 789 790 789 788 788 788 788 788 788 788 787 786 786 786 786 786 785 785 784 783 783 783 783 784 784 784 783 783
775 774 772 771 769 768 766 764 762 760 759 759 758 759 759 758 758 759 760 761 762 761 761 762 762 763 763 764 764 764 764 763 764 766 768 769 771 774 775 777 778 778 779 780 782 783 784 784 785 785 785 785 786 787 787 788 788 788 788 788 787 787 787 787 787 787 787 786 786 785 785 785 785 784 784 783 782 782 782 783 783 783 783 783 784
775 774 772 771 769 767 765 764 762 760 758 757 757 757 757 757 757 756 755 756 758 759 760 760 759 759 760 761 762 762 762 762 762 763 764 766 769 772 773 774 775 775 776 777 779 781 783 783 783 784 783 783 784 785 785 786 786 786 786 786 786 785 785 786 786 786 785 785 785 785 784 784 784 783 783 783 782 781 782 782 782 783 783 783 783
775 774 772 770 769 767 765 763 762 760 759 757 756 756 756 756 755 754 753 752 753 754 756 756 756 756 756 757 758 759 759 760 760 760 762 764 767 769 769 770 771 772 774 776 777 779 781 782 782 781 781 781 782 783 784 784 784 784 784 784 784 784 784 784 784 784 784 784 784 784 783 783 783 782 782 782 781 781 781 781 781 782 783 783 783
775 773 772 770 768 767 765 763 762 760 759 757 756 755 754 754 754 753 752 752 751 750 751 752 752 752 752 754 755 755 756 757 758 759 760 762 764 765 766 768 769 771 773 775 776 777 779 779 779 779 779 779 780 781 781 781 781 781 781 781 782 782 782 783 783 783 783 783 783 783 783 782 782 782 781 781 781 781 781 780 780 781 782 783 783
775 773 771 769 768 766 765 763 761 759 758 756 755 754 753 752 752 752 751 751 751 750 748 748 749 749 750 751 752 752 754 755 756 756 757 759 761 762 764 766 767 769 772 773 774 775 776 777 777 777 777 777 778 778 778 778 779 779 779 780 780 781 781 781 781 781 782 782 782 782 782 782 781 781 781 780 780 780 780 779 779 780 781 782 782
774 773 771 769 767 765 764 762 761 759 757 756 755 754 753 751 750 749 748 748 749 749 748 747 747 747 747 748 749 750 751 752 753 754 754 756 758 759 761 764 765 767 770 772 773 773 773 774 775 774 774 774 775 775 776 776 777 777 778 778 779 779 779 780 780 780 781 781 781 781 781 781 781 780 780 780 779 779 779 778 778 779 780 781 781
774 772 770 768 766 765 763 762 761 759 758 757 756 754 753 752 750 747 745 744 746 748 748 746 745 745 745 746 747 747 748 750 751 752 752 754 756 757 759 762 764 765 767 769 770 771 771 772 773 772 772 772 772 773 774 774 775 776 777 777 777 777 777 778 778 779 780 780 780 780 780 780 780 780 779 779 778 778 778 777 777 777 778 779 780
773 772 770 768 766 764 763 762 760 758 757 757 756 754 752 751 749 747 744 743 744 746 747 745 744 744 744 744 745 746 747 748 749 750 751 753 754 755 757 759 762 763 765 766 767 768 769 770 771 770 770 770 770 771 772 773 774 775 775 776 776 776 776 776 777 778 779 779 779 778 778 779 779 779 779 778 778 777 777 777 777 777 777 778 779
773 771 769 767 766 765 763 761 759 758 757 756 755 753 751 749 748 746 745 743 743 744 745 744 743 743 743 743 744 745 746 747 747 748 749 750 752 754 755 757 760 762 763 764 765 765 767 768 769 769 768 768 769 769 770 771 773 773 774 774 774 775 775 775 776 777 777 778 778 777 777 778 778 778 778 778 778 777 777 777 777 777 777 778 779
772 770 768 767 766 764 763 760 759 758 757 755 753 751 750 748 747 745 744 744 743 743 743 743 742 742 742 742 742 743 744 745 746 746 746 747 748 751 753 754 757 760 762 762 762 763 764 766 766 767 767 767 767 768 769 770 771 772 772 773 773 773 774 774 775 776 776 776 776 776 776 776 777 777 777 777 777 777 776 777 777 777 778 778 779
772 770 768 767 766 764 762 760 759 758 756 754 752 751 749 747 746 745 744 743 743 743 743 742 741 741 741 741 741 741 742 743 744 744 744 745 747 749 750 752 754 757 759 760 760 761 762 763 764 764 764 764 765 766 767 768 769 770 771 771 772 772 772 772 773 774 775 775 775 775 775 775 776 776 777 777 777 776 776 777 777 777 778 778 778
772 770 769 767 766 764 762 760 758 757 755 753 752 750 748 746 745 744 743 743 742 742 742 742 741 741 740 740 740 740 741 741 742 742 743 744 745 747 750 751 752 754 756 758 758 759 759 760 761 761 762 762 763 764 765 766 767 768 769 769 770 770 770 771 772 773 773 774 774 774 774 774 775 775 776 776 776 776 777 777 777 777 778 778 778
771 770 769 767 765 763 761 760 758 757 755 753 751 749 747 746 745 744 743 742 742 742 742 741 740 740 739 739 739 740 740 740 740 741 742 742 744 746 749 750 751 752 754 755 756 755 756 757 758 759 759 760 761 762 763 764 765 766 767 767 768 768 768 769 770 771 772 772 772 773 773 774 774 775 775 776 776 776 776 777 777 777 778 779 779
771 770 768 766 764 763 761 759 757 755 754 752 751 749 746 745 744 744 743 742 742 742 741 740 740 739 738 738 738 738 738 739 739 740 741 742 744 746 749 750 751 752 753 753 753 753 753 754 755 756 757 758 758 759 761 762 763 764 765 765 766 766 767 767 768 769 770 771 771 772 772 773 773 774 775 775 776 776 776 777 777 777 778 779 779
772 770 768 765 764 762 760 759 757 755 753 752 750 748 746 744 744 744 743 742 742 742 741 740 739 738 737 736 736 737 737 737 738 739 741 742 743 746 748 749 750 751 752 752 751 751 751 752 753 754 755 755 756 757 759 760 761 762 763 763 764 765 765 766 767 768 769 769 770 770 771 772 773 774 774 774 775 776 776 777 777 778 778 779 780
772 770 768 765 764 762 759 758 756 755 754 752 749 747 746 744 743 743 743 742 741 741 740 739 739 737 736 736 736 736 737 737 738 739 740 741 743 745 747 748 749 750 751 751 750 750 750 750 750 752 752 753 754 755 756 758 759 760 761 762 762 763 764 764 765 766 767 768 769 769 770 771 772 772 772 773 774 775 776 776 777 778 778 779 780
772 770 767 765 763 761 759 756 755 754 753 752 749 747 745 744 743 742 742 742 741 740 738 738 737 736 736 735 735 735 736 737 738 739 740 741 742 743 745 746 747 749 750 750 749 749 749 749 749 750 751 751 752 753 755 756 758 759 759 760 760 761 762 763 763 764 765 766 767 768 768 769 770 771 772 773 774 774 775 776 776 777 778 778 779
771 769 767 765 762 760 758 756 754 753 751 750 748 747 745 743 742 741 740 741 741 739 737 736 736 735 735 734 734 734 735 735 736 737 739 739 740 741 743 744 746 747 748 748 747 747 748 747 747 748 749 750 751 752 753 755 756 757 758 758 758 759 760 761 761 762 763 765 765 766 767 768 769 770 771 772 773 773 774 775 776 776 777 778 779
770 768 766 764 762 760 758 756 754 752 750 748 747 746 744 743 742 740 739 738 739 738 737 735 735 735 734 734 733 733 733 733 734 735 737 738 739 740 742 743 744 745 745 744 744 745 745 745 745 746 748 749 749 750 752 753 754 755 756 757 757 757 758 760 760 760 762 763 764 764 766 767 768 769 770 771 772 772 773 774 775 776 776 777 778
769 767 765 763 762 760 758 756 754 752 750 748 746 745 743 742 741 740 739 737 737 737 736 734 734 733 733 733 733 732 732 732 732 733 735 736 737 739 740 741 742 742 742 741 741 742 742 743 744 745 746 747 748 749 750 751 753 754 754 755 756 756 757 758 759 760 761 762 763 763 765 765 766 768 768 769 770 771 772 773 774 775 775 776 777
768 765 764 762 761 759 757 755 753 752 750 749 747 745 743 741 740 740 740 738 737 736 735 734 733 732 731 731 731 731 731 731 731 732 733 734 736 737 738 739 739 740 739 738 738 739 739 740 741 743 744 745 746 747 749 750 751 752 753 754 754 755 756 757 758 758 759 761 762 763 764 764 765 766 767 768 769 770 771 772 773 774 775 775 776
766 764 763 761 760 758 756 754 753 751 750 748 747 745 744 742 741 740 739 738 737 736 735 733 732 730 729 729 729 729 729 730 730 731 732 733 734 735 736 736 736 736 735 735 735 735 736 737 739 740 742 743 744 745 747 748 749 750 751 752 753 753 754 756 756 757 758 759 761 762 763 763 764 765 766 767 768 769 770 771 772 773 774 775 776
765 763 761 760 759 757 756 754 753 751 750 748 747 745 744 742 741 740 739 738 737 736 735 734 732 730 729 729 729 728 728 729 729 730 730 731 732 733 734 734 734 734 733 733 733 733 733 734 736 738 740 741 742 743 745 746 747 748 749 750 751 752 753 754 755 755 757 758 759 760 761 762 762 763 765 766 767 768 769 770 771 772 774 774 775
764 762 761 759 758 756 755 754 753 752 751 749 748 746 744 743 741 740 740 739 737 736 736 734 733 731 730 730 729 729 728 728 728 729 729 730 731 731 732 733 733 733 733 734 733 732 732 733 734 736 738 739 741 742 743 744 745 746 747 748 750 751 752 752 753 755 756 757 758 759 760 761 761 762 763 765 766 767 768 769 771 772 773 773 774
763 761 760 759 758 757 756 755 754 753 752 750 749 747 745 744 743 742 741 740 739 737 736 736 734 731 730 730 730 729 728 728 728 728 729 729 730 730 731 731 731 732 733 734 734 733 732 733 733 735 736 738 739 741 741 742 743 744 745 746 748 749 750 751 752 754 755 756 757 759 760 760 760 761 762 764 765 766 767 768 770 771 771 773 774
Wind_Speed
9 10 12 17 18 17 17 18 19 20 20 19 19 18 18 17 17 18 17 16 16 15 14 13 11 11 10 9 8 7 6 5 4 3 1 2 3 3 3 3 3 4 4 4 5 5 5 6 6 6 7 8 8 8 8 9 8 9 10 11 12 11 12 13 9 8 13 15 14 15 15 15 16 16 17 18 18 18 18 19 19 19 19 20 20
7 8 10 12 12 10 13 15 17 19 17 17 19 18 17 17 17 17 17 16 16 15 14 13 12 11 10 9 8 7 6 5 4 3 2 2 2 2 2 2 3 4 4 4 5 5 4 5 6 6 6 7 8 8 9 9 9 10 10 10 12 12 11 13 11 9 12 14 16 17 16 16 17 17 17 19 19 19 19 18 18 18 18 18 19
6 7 10 13 10 8 11 13 13 15 14 14 17 17 16 17 17 16 17 16 16 15 14 13 12 11 10 10 9 8 6 5 4 3 2 2 1 2 3 3 3 4 4 4 5 5 5 5 6 7 7 8 9 9 9 10 9 10 11 11 13 14 13 14 14 12 12 14 16 16 16 18 19 18 18 18 18 18 18 17 17 17 18 19 19
6 6 9 12 13 13 12 11 9 11 12 12 16 17 17 17 17 16 16 16 15 15 14 13 12 11 10 10 9 8 7 6 5 4 4 3 2 2 2 3 3 4 5 5 6 6 6 6 6 6 7 7 8 9 8 8 8 8 10 11 11 13 14 15 15 14 13 13 14 15 17 18 19 18 18 18 17 16 17 17 17 16 16 17 17
7 6 7 9 12 15 15 12 10 12 13 10 12 16 17 16 17 17 16 16 15 14 14 13 12 11 10 10 9 9 8 7 6 4 4 3 3 3 2 3 3 4 5 5 6 7 7 7 7 6 6 7 7 8 8 8 8 8 9 10 11 12 13 14 15 15 14 13 14 15 16 17 17 17 17 17 17 18 17 17 16 15 16 18 18
6 6 7 7 9 13 16 16 15 18 19 13 11 13 13 12 14 15 15 15 15 14 12 13 13 12 11 10 9 9 9 8 6 5 4 3 3 3 3 3 3 4 5 6 6 7 7 7 8 8 7 7 6 5 6 6 5 5 7 9 10 10 11 12 12 13 14 13 13 14 14 15 15 16 16 15 17 18 18 17 17 17 18 20 20
7 8 8 8 9 10 14 18 20 22 21 17 15 13 11 12 13 13 12 11 13 15 12 11 12 12 11 11 11 9 8 7 6 5 4 4 4 3 2 3 4 5 5 6 6 6 6 6 7 6 5 4 2 2 3 4 3 3 4 7 9 10 10 10 11 11 12 12 12 12 13 14 14 15 15 14 15 16 17 18 19 19 19 19 21
7 9 9 10 11 12 14 17 21 23 21 21 21 19 17 15 15 16 15 12 11 14 14 12 12 13 12 11 12 10 8 7 7 7 5 4 4 3 3 4 5 5 6 6 6 6 7 6 5 4 3 3 3 4 5 5 5 4 3 5 9 11 10 10 11 11 10 11 11 11 13 14 13 14 14 14 15 15 16 18 19 20 20 20 21
8 8 9 11 13 13 14 16 20 23 23 24 26 26 24 20 18 18 19 17 14 14 15 15 15 16 14 10 10 11 10 8 8 9 7 5 4 3 3 4 4 6 7 7 6 6 7 6 5 4 5 7 8 8 7 6 6 5 5 5 7 9 10 9 10 10 9 10 10 10 12 12 12 14 14 14 14 15 16 17 17 19 21 22 21
8 9 10 11 13 13 14 15 18 21 23 25 25 25 24 22 19 18 18 18 18 16 16 17 16 16 16 12 11 12 12 12 11 11 10 7 6 5 4 3 5 7 7 7 7 6 6 7 7 6 6 7 8 7 5 4 4 5 5 5 5 7 7 8 8 8 8 8 9 9 10 10 11 13 13 13 14 14 15 16 16 18 19 19 19
8 9 10 11 11 12 14 16 17 19 22 24 24 24 24 21 19 19 18 19 19 18 18 17 14 12 14 13 13 13 14 14 15 13 11 8 6 6 6 4 5 7 7 7 7 6 6 7 6 7 7 6 6 5 4 4 4 4 4 3 4 5 5 5 6 7 7 7 8 8 8 9 10 12 13 13 13 14 15 15 15 16 16 15 16
15 13 12 11 11 12 14 15 18 20 21 22 24 25 24 22 20 19 19 21 21 19 19 18 14 12 13 13 14 16 16 15 15 14 12 8 5 5 6 6 5 7 8 8 7 6 6 6 6 6 6 5 5 5 5 6 5 5 5 5 6 7 7 7 6 6 5 5 6 7 7 8 9 11 12 13 13 14 14 14 14 14 14 14 14
20 20 19 17 13 12 14 14 16 19 21 22 22 23 23 23 24 22 21 21 22 21 20 19 16 15 16 15 14 16 18 17 16 15 12 8 4 4 6 6 6 8 8 7 7 6 6 6 7 6 6 5 5 4 5 5 5 5 7 9 10 10 10 10 8 7 6 6 6 6 6 7 9 11 11 12 14 13 11 12 13 13 14 14 16
18 20 21 22 20 17 11 12 13 14 16 18 20 21 22 23 25 26 23 22 23 24 22 21 19 18 19 17 15 15 17 17 16 15 12 7 4 4 5 7 7 8 8 7 6 6 6 7 7 6 6 6 5 5 4 3 5 6 8 12 13 11 8 9 9 9 10 10 10 8 7 9 11 13 12 11 11 11 9 11 12 12 14 15 17
15 17 18 18 19 21 16 9 9 9 10 12 14 17 20 21 23 24 23 23 24 25 25 23 22 20 19 18 16 15 15 16 16 16 12 7 5 4 5 7 8 8 7 7 6 7 7 7 7 6 6 7 7 7 6 6 8 8 8 11 12 8 7 9 10 10 9 9 10 10 11 14 15 15 12 10 9 9 9 10 11 12 14 15 16
11 13 15 16 18 20 17 11 10 10 9 9 10 14 17 18 19 19 21 23 24 25 25 24 24 23 21 19 17 15 14 16 17 16 12 7 6 6 6 7 9 9 8 7 6 7 8 8 8 7 7 9 9 8 7 7 8 8 8 9 9 7 8 10 10 7 6 7 9 11 13 14 14 14 14 12 11 9 8 10 11 12 13 13 15
12 13 14 16 17 18 16 13 11 12 13 11 10 11 12 14 16 18 19 21 22 25 26 25 26 26 24 21 18 15 14 15 17 16 12 9 7 7 7 8 9 10 10 8 7 8 9 9 9 8 9 11 11 9 8 7 7 6 7 8 8 8 8 6 4 3 5 10 14 14 11 12 14 15 15 14 13 12 11 12 12 11 11 11 12
17 16 15 16 15 14 14 12 11 14 15 12 10 10 9 10 13 17 19 20 21 24 26 24 22 23 24 22 19 17 16 16 17 16 13 10 9 8 8 9 11 12 11 9 9 10 11 11 10 10 10 12 11 9 8 7 6 5 6 7 8 9 7 3 4 6 10 14 15 12 8 10 14 16 14 12 12 13 14 13 11 10 10 10 10
19 18 19 19 14 12 15 14 12 15 16 13 10 11 10 10 12 15 17 19 21 23 24 24 22 22 22 21 20 19 18 17 18 17 15 12 11 11 11 11 12 14 12 10 11 13 13 13 14 13 12 12 11 10 9 9 8 7 7 7 8 9 8 8 9 13 16 15 11 9 9 11 14 14 10 8 8 10 10 8 8 9 10 11 12
20 20 20 20 16 13 17 19 16 12 12 14 14 11 10 11 13 14 15 16 19 21 23 24 25 25 24 21 19 19 19 18 17 17 16 14 12 12 13 13 12 12 11 11 13 15 15 16 17 17 15 13 11 11 10 10 10 10 9 9 9 10 12 13 14 14 14 11 9 10 13 13 12 11 6 3 4 3 1 4 7 8 9 11 12
21 20 20 20 19 17 17 19 17 13 11 12 14 12 11 12 13 14 15 15 17 21 22 23 24 25 25 24 21 19 20 20 19 17 16 15 14 14 16 16 12 10 10 10 11 12 14 17 19 19 17 14 12 10 10 10 11 12 11 10 11 13 15 15 13 11 9 9 10 13 14 11 8 8 5 3 5 4 5 6 6 6 7 9 11
23 21 19 19 19 19 18 16 15 15 13 11 11 12 11 11 12 14 16 17 17 20 21 22 23 24 24 24 22 21 22 22 20 18 17 16 17 17 17 18 16 12 9 7 7 7 8 12 16 17 16 14 11 10 10 12 13 13 12 11 12 12 12 11 8 7 6 9 12 12 10 8 6 5 6 5 5 5 5 4 3 5 7 8 8
24 22 19 19 20 21 21 19 15 14 14 12 12 12 11 12 12 13 15 15 16 17 19 21 23 23 22 21 20 21 23 21 19 18 18 19 18 18 18 18 18 16 11 6 4 4 3 6 10 13 13 11 9 9 10 13 14 14 12 11 10 9 8 6 5 6 8 10 12 11 8 7 6 5 5 6 5 4 3 4 4 6 8 7 6
25 23 19 18 20 22 23 23 19 16 13 13 12 11 10 11 12 13 14 14 14 15 16 19 21 22 22 21 20 21 22 20 18 19 20 20 19 18 18 19 19 19 17 11 6 5 3 3 6 9 9 8 8 9 12 14 15 13 11 8 6 7 6 5 6 8 10 11 11 9 6 6 6 5 5 6 2 3 6 7 7 7 8 5 5
25 23 19 18 21 22 23 24 23 20 16 14 13 14 12 10 11 12 13 15 16 16 16 16 18 20 22 23 24 24 22 20 21 22 22 20 19 19 19 20 21 21 20 17 12 9 7 5 5 7 7 8 9 12 15 16 14 11 8 6 5 6 6 6 8 9 10 10 9 7 5 6 5 5 7 6 1 4 8 10 8 7 7 5 6
24 21 19 19 20 21 22 23 23 21 18 16 16 16 15 11 10 11 13 15 16 17 17 18 18 19 20 21 24 24 23 23 25 25 23 21 20 20 20 20 21 23 23 21 18 15 13 12 11 10 10 11 13 14 16 15 13 10 8 7 7 7 6 7 9 8 8 7 7 6 6 6 5 5 8 6 1 4 8 8 5 7 8 6 6
21 20 20 20 20 20 21 23 22 20 18 17 17 16 15 12 9 10 12 15 16 16 16 17 18 18 18 19 22 23 24 24 25 25 25 24 21 21 21 21 22 23 24 23 22 19 17 16 16 15 14 15 16 16 15 14 14 12 10 9 9 7 6 7 8 7 7 6 6 6 5 6 6 6 8 5 3 6 6 6 7 7 7 5 4
21 21 21 21 21 21 20 21 21 20 18 17 17 17 15 12 11 12 13 15 17 17 16 17 19 20 19 19 20 21 24 25 25 25 28 27 23 22 23 24 24 24 24 24 23 21 19 18 17 16 15 15 16 15 15 14 13 13 12 12 11 8 7 9 9 7 6 5 5 5 5 6 7 6 6 5 2 7 5 6 9 7 4 4 5
22 22 21 20 21 21 20 20 21 20 20 19 18 18 17 14 14 16 17 16 18 20 20 20 21 21 21 21 20 20 22 24 25 25 26 25 23 23 24 24 24 25 25 23 20 17 16 16 15 14 13 13 13 13 13 13 13 13 13 13 12 10 9 10 9 9 7 5 4 5 5 6 7 5 5 5 1 7 6 7 9 6 3 4 5
21 20 20 19 20 21 20 20 20 19 19 20 19 17 18 19 20 19 16 16 18 21 23 24 23 20 20 21 21 22 23 24 23 23 23 23 23 23 22 20 21 23 22 21 18 15 15 17 15 13 12 13 13 14 16 17 18 17 16 15 13 10 10 8 7 7 6 4 4 5 4 5 6 4 5 5 1 6 8 8 8 6 5 6 6
20 20 20 20 21 21 20 19 20 20 19 18 17 16 17 21 25 24 19 16 16 18 21 23 24 23 22 22 22 23 24 24 21 21 23 23 23 22 20 18 17 17 17 17 19 18 17 17 16 15 15 16 17 18 18 18 17 15 14 14 12 10 9 8 7 6 5 4 5 4 4 5 5 4 4 6 5 2 8 10 8 7 8 8 7
19 20 21 21 21 21 20 19 21 21 20 19 16 15 15 18 21 22 19 16 17 19 18 19 21 23 23 23 23 22 24 26 24 21 22 24 23 22 21 19 17 15 14 17 20 20 17 14 14 15 16 17 18 17 15 12 12 10 10 11 10 9 8 8 8 8 6 5 5 4 3 4 3 3 4 6 8 6 3 10 10 9 10 11 9
20 21 21 21 21 19 18 18 20 20 21 22 19 16 15 14 15 16 16 15 15 19 19 17 16 17 17 19 21 22 24 27 25 20 21 25 25 22 22 21 18 16 18 21 22 20 17 15 15 17 16 15 15 14 12 10 9 8 9 9 8 7 8 8 8 8 6 5 5 5 4 3 2 3 6 6 6 8 5 4 10 12 13 13 12
21 21 21 22 21 16 15 18 20 20 20 21 20 17 17 17 15 15 15 13 11 14 16 14 12 12 13 14 16 19 23 26 25 22 22 24 24 23 22 21 19 18 21 24 23 19 17 16 17 18 18 14 11 11 11 11 10 9 9 9 8 7 8 8 7 6 6 7 6 5 4 4 3 3 4 4 3 5 7 5 4 8 10 13 15
20 20 20 20 18 15 15 19 20 16 15 17 18 17 18 17 15 14 13 11 10 12 12 10 9 10 12 13 15 18 22 25 26 25 23 22 23 24 23 22 20 20 22 23 21 19 18 18 18 19 18 14 11 10 11 11 12 12 10 10 10 9 8 7 7 7 8 7 6 4 5 4 3 3 3 3 3 3 4 5 7 7 6 8 14
19 19 19 18 17 17 19 19 18 16 16 17 17 17 16 15 13 13 12 11 11 12 10 7 8 10 11 12 14 17 20 23 25 26 26 25 26 28 26 24 23 22 23 23 22 20 19 18 19 19 18 15 13 12 12 13 14 13 12 11 11 11 10 9 9 9 8 8 6 4 5 5 4 3 2 2 3 2 3 4 4 5 7 7 6
19 18 18 18 19 19 19 18 17 18 19 18 16 15 15 14 14 13 11 10 11 12 11 6 6 8 9 10 12 15 18 22 23 24 25 27 29 30 28 26 25 23 21 21 22 22 22 21 20 18 17 17 16 14 14 15 15 14 14 13 12 11 11 11 11 10 8 7 6 6 5 4 4 4 4 2 2 2 3 3 1 1 4 5 6
18 18 18 19 20 20 18 17 17 18 18 17 14 13 15 17 16 13 10 10 10 11 11 9 6 6 7 9 12 14 15 18 20 22 25 28 30 28 24 22 22 21 20 20 22 23 23 23 22 19 17 17 17 16 15 15 15 15 15 14 12 11 11 12 12 11 10 8 7 6 6 4 3 4 5 3 1 1 2 2 2 3 4 4 6
19 18 18 20 21 19 16 17 17 17 17 16 13 12 14 17 17 13 9 9 11 11 10 10 9 9 8 10 12 14 15 16 18 21 25 28 29 27 22 19 18 18 19 21 22 23 23 22 22 21 19 17 17 17 17 16 15 15 15 14 14 13 12 12 12 11 11 10 7 6 7 6 4 4 5 5 4 3 2 2 3 4 4 2 5
20 19 19 20 20 17 17 19 18 15 15 14 13 13 14 15 16 14 10 9 10 10 10 10 11 11 11 13 15 16 17 19 20 21 23 25 26 26 24 20 17 16 18 20 20 21 23 22 20 20 20 18 17 17 17 16 15 15 15 14 14 14 12 11 11 11 11 11 9 7 7 8 6 5 6 6 5 4 4 3 3 4 5 5 4
20 20 21 21 18 16 19 21 17 14 13 13 13 14 14 13 13 14 12 9 9 10 10 11 12 12 13 15 16 17 19 21 22 23 24 25 25 25 23 20 18 18 20 21 20 19 20 21 20 19 19 18 17 17 17 16 15 15 15 15 14 14 11 10 11 12 11 11 10 8 7 8 8 7 7 8 8 6 6 6 5 4 6 6 5
21 20 21 21 18 17 19 18 14 13 15 14 13 13 13 12 12 12 13 12 10 9 9 11 12 13 14 15 14 14 18 20 20 23 25 25 24 23 22 21 21 21 22 22 21 19 18 17 17 17 17 17 17 16 17 17 16 15 16 15 14 14 13 12 12 13 12 13 12 10 8 9 9 7 7 9 10 8 6 7 8 8 7 7 7
21 19 19 20 20 19 19 16 13 13 14 13 13 12 10 10 9 10 14 17 15 11 9 10 11 13 14 14 12 13 15 17 18 20 21 22 22 22 23 23 23 23 24 25 24 21 19 17 16 15 15 16 17 16 17 17 17 16 16 16 15 15 14 13 14 15 13 12 12 12 11 11 10 8 7 9 9 8 7 7 8 8 8 7 7
20 18 18 19 19 19 19 17 16 16 15 14 12 10 9 10 9 7 10 16 17 12 7 7 8 11 12 13 14 15 16 16 17 19 20 22 23 23 22 22 23 24 26 27 26 23 20 17 16 15 14 14 16 17 17 17 17 17 16 16 16 16 16 14 15 16 14 12 13 13 14 14 12 9 9 10 9 8 8 9 8 8 9 10 10
19 17 17 18 18 19 19 18 18 19 20 19 15 11 11 13 11 9 10 12 13 11 8 6 7 9 9 11 15 18 19 17 16 18 20 21 21 21 21 22 23 24 25 26 27 25 22 18 17 17 16 15 16 17 17 16 16 16 16 15 16 17 17 16 15 13 12 13 14 13 12 14 13 10 10 12 11 9 10 10 9 8 9 11 12
19 16 16 16 17 18 18 18 17 17 18 19 18 15 15 14 10 10 14 13 10 10 10 8 7 8 7 8 11 15 19 19 18 19 21 21 21 20 20 21 21 23 26 29 28 24 20 18 17 17 17 17 16 17 18 17 16 15 15 14 14 16 17 16 14 12 12 14 14 10 10 14 13 9 10 13 13 11 12 13 11 9 8 9 11
19 16 15 15 16 17 18 18 18 16 16 17 17 17 18 15 9 10 17 17 12 10 9 6 6 7 8 8 9 11 14 16 17 17 19 21 23 23 21 20 19 20 22 25 27 24 21 20 19 18 18 19 18 18 19 18 17 17 17 15 13 15 16 16 15 15 16 17 15 11 10 13 13 10 10 12 11 11 12 13 12 11 10 9 11
18 16 15 14 16 17 17 17 17 17 16 16 16 16 18 16 10 10 16 18 15 13 12 8 7 7 8 7 8 10 11 12 12 13 15 17 20 22 22 22 21 19 18 16 20 25 23 21 22 21 20 21 21 20 19 18 17 17 17 16 15 14 15 15 17 17 17 17 16 13 11 13 13 12 12 12 10 11 13 13 12 12 12 11 12
17 16 15 15 16 16 16 17 17 17 17 17 16 16 17 16 14 13 15 17 19 18 16 11 7 7 7 6 7 9 10 10 10 11 13 15 17 19 22 23 23 19 15 12 13 23 26 23 23 24 23 22 22 22 20 18 18 18 17 17 17 15 14 16 18 16 14 15 15 13 12 12 12 13 14 14 11 11 13 13 13 13 13 13 13
17 16 15 15 16 16 16 16 16 17 16 16 16 16 16 16 17 17 17 19 21 21 19 18 16 10 6 6 6 6 7 9 10 11 13 13 14 15 19 21 21 18 14 9 5 16 24 24 23 24 23 23 23 22 20 19 19 18 17 17 18 17 16 18 19 16 13 14 15 13 12 13 12 13 15 15 12 12 14 14 14 15 15 14 15
15 15 15 16 16 16 15 15 15 16 16 16 16 17 16 16 17 17 17 19 20 19 17 19 20 17 11 6 6 5 5 5 6 9 11 12 13 14 17 19 19 18 18 14 8 9 16 19 20 22 22 22 22 22 21 19 18 18 18 17 18 18 19 20 19 17 15 15 14 12 12 13 13 14 15 15 13 13 15 15 15 15 15 15 15
Wind_Direction
249 243 239 233 233 234 226 218 216 221 223 213 205 205 203 198 191 183 179 177 176 175 177 180 182 185 188 190 188 186 188 194 197 205 265 320 317 309 307 310 315 322 329 330 319 306 303 306 306 306 309 312 314 310 304 305 302 300 306 307 301 296 293 292 289 290 295 293 295 304 310 313 315 315 318 319 317 316 314 312 310 308 308 307 304
243 237 238 241 243 234 228 233 228 225 226 215 207 208 207 201 193 186 182 180 179 179 181 184 186 190 193 194 194 195 198 199 196 205 262 295 298 304 297 295 308 315 314 309 305 309 315 316 316 319 317 316 316 314 318 325 325 316 310 305 306 308 308 308 311 313 311 310 314 319 322 324 322 319 319 318 318 317 314 313 313 312 312 312 312
253 238 240 246 245 221 228 245 233 223 233 226 212 213 215 207 197 190 188 185 184 183 184 186 188 194 198 198 199 199 199 204 210 226 255 261 282 295 287 288 294 298 303 306 308 314 319 315 316 319 319 319 320 319 320 323 324 319 313 312 317 322 326 330 334 336 329 325 327 326 324 324 322 318 315 314 314 314 314 314 316 316 315 315 314
282 253 241 239 230 222 235 249 231 222 243 241 219 217 222 214 203 197 196 195 191 187 186 188 188 197 204 203 203 204 205 214 220 234 249 245 252 268 269 285 294 300 308 312 311 311 312 308 305 310 312 313 315 313 309 309 308 305 309 316 321 323 325 329 334 335 332 327 325 324 320 318 315 311 310 310 312 314 314 314 315 316 317 319 320
301 281 259 241 225 223 229 232 220 215 228 239 228 225 229 219 206 205 205 202 199 194 192 192 190 197 208 210 210 207 208 217 220 230 251 243 230 232 245 272 287 298 302 302 305 306 307 308 309 310 311 307 305 301 297 299 301 301 312 322 324 323 323 324 324 324 322 321 319 316 310 305 304 306 308 314 319 320 316 315 318 324 330 331 330
296 284 274 260 238 229 229 226 216 209 215 226 224 225 238 233 218 218 217 211 209 206 204 205 202 199 203 213 219 213 206 212 217 223 241 241 228 231 241 261 276 286 292 292 297 304 307 310 313 315 313 306 301 299 299 305 307 307 322 330 327 321 318 318 316 313 313 312 309 306 302 300 304 307 311 316 318 317 319 323 328 334 336 334 332
280 274 270 265 254 241 236 232 221 214 219 225 218 218 237 244 238 237 232 224 221 217 217 222 215 204 202 210 218 215 202 200 209 218 227 228 221 225 239 263 276 280 285 287 290 298 301 298 300 305 302 289 289 298 293 297 301 303 328 337 330 323 320 316 310 307 307 307 305 305 305 304 305 307 313 321 322 324 332 336 332 333 335 334 331
267 262 256 257 254 242 235 234 228 224 226 225 223 230 243 248 244 241 237 233 230 223 221 229 224 211 210 210 208 206 202 204 216 217 212 210 208 223 253 261 269 275 279 285 287 286 286 285 287 301 306 295 293 299 292 291 293 292 309 327 320 315 315 313 308 306 305 305 306 306 305 304 307 315 326 335 337 336 338 335 329 329 332 330 327
263 257 246 244 246 241 236 235 231 229 229 226 225 231 241 249 248 242 237 234 237 232 225 229 227 212 207 212 205 203 206 211 213 201 191 195 198 202 245 258 263 273 276 278 282 283 285 285 276 283 325 331 318 310 307 301 297 295 300 307 303 300 300 300 301 303 302 303 305 305 306 309 318 330 336 340 339 334 332 332 329 328 327 322 320
256 255 251 245 243 241 238 239 238 234 231 229 228 229 235 243 244 239 237 235 237 234 225 229 230 208 198 209 213 208 209 212 212 208 206 218 222 212 225 250 263 271 273 272 276 278 280 284 276 270 299 322 317 314 326 331 326 321 317 303 285 283 288 289 291 293 294 298 302 307 311 315 324 331 331 331 333 332 334 334 327 323 323 321 320
286 266 261 253 247 242 239 237 234 232 231 229 230 231 233 236 240 240 239 236 234 231 225 226 229 206 192 205 214 209 211 215 219 222 227 239 242 227 224 236 256 265 266 266 270 269 268 275 278 277 286 299 299 302 322 333 329 327 333 315 273 259 266 283 294 295 293 295 301 307 312 314 319 322 322 324 328 331 331 327 323 324 328 326 321
320 307 294 274 251 240 242 244 237 231 230 229 232 236 235 234 238 242 241 235 231 228 222 217 219 211 201 211 219 213 214 222 225 227 234 245 253 234 226 228 246 259 259 258 261 267 269 270 271 273 275 275 277 286 297 305 303 296 309 311 287 267 258 255 267 279 276 283 298 302 301 306 313 315 316 319 322 324 323 320 322 326 324 320 315
325 325 327 322 299 261 240 239 241 237 235 235 235 236 234 231 234 238 240 235 228 224 218 208 209 212 209 217 226 217 214 223 228 229 236 248 263 247 232 228 236 253 260 261 263 266 263 259 258 259 260 262 265 270 281 299 308 302 300 299 292 282 263 248 251 258 250 252 276 289 290 293 298 299 296 296 301 307 311 310 313 314 311 310 307
333 334 343 344 329 310 276 243 242 242 240 242 241 238 235 231 232 234 237 233 226 220 215 210 213 216 213 219 230 224 218 223 228 229 234 248 265 253 237 229 228 244 259 261 264 263 255 251 251 251 254 252 242 238 247 282 307 306 296 289 289 284 266 253 256 256 249 249 258 267 277 282 283 286 286 281 282 285 289 294 296 296 300 305 305
339 336 341 342 333 330 327 304 280 268 249 245 244 240 237 233 231 232 233 230 223 215 211 213 218 218 212 216 225 226 223 227 230 229 231 244 259 252 240 228 221 231 247 249 250 251 246 245 245 246 252 245 234 236 246 265 289 299 294 288 289 288 278 276 274 262 251 251 256 264 275 279 276 277 279 275 271 276 282 287 291 296 301 307 309
335 334 335 333 328 328 330 324 307 287 261 244 236 232 233 235 236 233 228 224 218 211 210 215 218 215 210 212 221 225 223 224 226 226 229 243 251 241 228 216 212 223 235 235 239 245 242 240 240 238 243 244 243 248 257 274 292 298 293 292 296 297 292 286 281 268 246 256 276 282 279 277 272 270 270 267 265 271 280 287 299 307 307 312 316
333 330 328 328 329 328 325 323 311 287 260 237 226 230 236 241 239 232 221 215 211 210 212 216 216 212 208 209 218 222 218 216 220 224 232 243 244 232 217 209 213 224 227 223 229 236 235 236 236 234 235 241 246 252 262 282 297 292 290 295 296 296 297 283 266 265 267 283 296 297 283 278 283 280 273 268 265 265 269 282 303 316 314 318 321
333 329 327 325 325 331 331 323 312 304 287 255 226 224 234 238 234 227 219 211 209 210 213 214 213 210 211 215 219 220 218 218 221 224 232 241 238 225 210 209 224 231 225 220 225 228 229 229 223 223 231 240 246 253 267 288 294 280 282 293 292 291 291 264 250 280 290 295 302 303 289 290 296 289 276 267 263 257 259 274 300 311 308 313 315
331 331 333 329 322 330 336 325 316 325 322 301 261 229 221 225 224 220 217 213 212 214 214 213 210 209 212 217 220 218 218 221 221 222 230 237 233 224 212 214 234 240 228 219 225 227 227 226 218 217 228 239 248 259 274 288 288 273 267 277 285 285 279 275 283 291 294 296 300 303 300 303 307 302 286 266 259 252 252 276 302 293 287 300 309
330 330 330 329 326 332 338 331 325 330 330 311 288 257 227 222 221 214 213 216 217 217 216 213 211 210 211 213 217 220 220 220 218 220 227 232 231 225 213 212 234 249 237 223 226 225 221 219 217 219 228 237 246 257 268 280 287 281 269 264 267 271 272 279 289 295 295 293 294 304 308 308 316 322 313 227 201 211 275 333 315 287 283 304 315
328 325 323 326 328 329 331 331 328 325 318 304 291 271 241 229 227 218 212 212 214 216 216 214 215 217 215 213 215 220 222 222 221 222 227 231 232 225 214 210 225 251 251 236 230 227 219 213 212 217 224 229 237 250 264 281 292 288 275 260 256 264 273 282 293 300 296 291 297 307 312 313 325 347 10 85 104 74 24 352 325 303 305 320 326
323 320 320 323 323 321 321 324 326 321 312 297 282 274 257 241 233 225 219 215 211 213 215 215 216 219 220 219 218 218 218 219 219 220 226 232 232 227 219 214 217 232 250 253 245 240 227 213 210 214 218 223 233 251 272 291 297 292 282 271 264 266 273 282 297 308 303 300 302 305 311 318 330 356 19 28 32 25 10 356 340 327 325 333 346
320 318 319 319 317 315 314 315 315 313 310 300 287 282 271 252 236 226 223 221 215 211 211 212 214 216 219 223 222 213 210 212 215 222 230 232 231 230 227 220 217 221 229 243 268 276 247 207 203 206 208 218 239 263 287 299 300 293 286 277 267 262 262 270 291 303 301 299 297 295 303 320 334 358 9 356 356 19 33 24 3 344 338 340 6
319 317 320 321 318 315 312 312 311 311 312 312 304 296 286 264 245 231 222 220 219 218 214 212 213 215 218 221 218 209 205 212 223 232 233 228 228 235 234 224 219 221 221 222 247 281 262 202 192 199 207 228 254 274 292 300 298 290 281 271 258 247 243 257 284 293 289 288 291 297 309 322 329 348 346 330 345 62 40 22 10 356 351 352 8
319 318 323 324 319 314 310 310 313 315 318 318 312 306 298 275 251 241 234 223 216 218 224 223 220 220 221 220 218 215 214 220 227 228 226 224 230 239 238 227 221 223 223 221 230 251 255 238 220 219 231 255 268 279 290 294 289 278 265 257 250 238 236 259 281 286 283 287 298 310 319 321 321 333 329 314 318 62 26 18 12 354 358 18 25
315 318 324 323 318 314 311 309 311 314 315 312 308 304 297 276 248 239 244 241 226 215 220 227 229 228 228 225 222 219 220 223 222 219 218 223 231 236 234 228 224 225 225 224 227 239 248 249 250 252 259 268 275 282 287 283 272 256 237 232 242 240 239 259 274 279 280 289 305 307 309 316 310 306 313 306 149 63 19 23 29 358 1 28 38
322 325 327 323 318 314 310 307 307 308 309 309 308 306 301 286 257 237 241 246 238 225 222 226 227 227 230 233 230 224 221 220 216 212 213 220 226 228 227 226 225 225 226 226 227 233 242 249 255 259 265 270 274 278 278 270 260 249 231 226 238 240 235 249 266 274 269 271 291 300 304 309 299 295 308 307 118 84 39 50 60 21 6 31 46
336 332 328 324 319 314 311 311 313 314 315 315 313 310 305 290 268 258 251 238 228 227 232 235 231 226 226 231 231 225 222 220 215 211 211 213 216 221 224 224 225 226 227 227 228 232 240 248 254 256 258 263 266 266 261 253 248 243 233 232 239 238 230 239 255 265 255 247 275 293 293 297 294 294 304 302 120 108 87 72 62 34 13 53 56
333 328 325 322 318 318 320 322 323 322 321 320 318 316 314 308 294 284 274 256 239 234 235 237 236 231 227 228 226 222 221 223 222 220 217 213 216 224 227 229 229 230 229 228 226 228 232 235 241 244 243 244 249 250 246 240 238 238 235 234 237 236 229 232 244 252 242 229 257 280 284 291 293 292 299 302 142 131 123 88 70 53 45 83 78
327 323 322 320 318 319 322 322 320 317 314 312 314 316 320 322 321 313 297 278 261 246 238 239 241 236 230 231 230 226 224 224 224 224 222 220 222 227 231 235 234 232 233 228 218 216 220 221 222 226 224 223 228 232 233 230 230 232 228 221 221 226 227 228 238 244 236 232 254 270 278 286 291 296 303 306 268 146 137 109 87 79 81 90 90
321 319 318 318 318 317 318 318 316 312 306 304 309 317 321 322 322 319 314 301 282 261 245 243 245 242 240 243 240 232 227 225 224 224 224 222 220 219 223 229 225 223 228 222 209 209 218 218 217 222 223 220 222 227 229 225 221 223 219 208 205 213 220 224 229 228 229 245 254 254 264 279 294 307 300 303 310 187 148 130 108 95 102 105 97
318 317 317 317 317 318 321 322 319 317 314 313 317 324 326 324 321 318 320 320 305 285 266 254 249 245 246 249 245 235 228 227 228 226 220 215 210 206 209 213 210 207 215 214 207 210 220 224 227 232 231 225 224 228 230 222 214 216 216 208 204 204 203 210 221 223 228 248 248 237 246 266 284 297 281 289 307 304 182 149 136 116 110 112 104
318 318 316 316 318 322 329 331 331 333 330 323 320 323 323 320 316 316 325 334 320 297 285 277 266 254 247 246 246 242 235 228 223 214 203 200 200 199 200 205 206 206 206 205 206 211 220 229 236 242 243 237 228 223 221 217 214 219 220 216 210 201 196 210 229 230 224 233 235 225 229 242 247 270 277 284 303 313 310 158 151 146 138 128 113
326 323 322 326 328 326 329 333 336 340 335 321 314 317 318 313 308 309 319 327 312 289 285 286 281 267 253 244 240 238 233 225 217 208 201 200 202 204 202 199 199 201 202 202 204 210 219 229 236 244 250 247 229 212 209 211 215 222 223 216 207 203 208 223 237 231 216 226 238 229 218 228 237 250 276 298 311 312 322 347 104 136 147 141 125
331 326 327 333 333 326 327 330 332 335 332 320 313 314 315 314 313 312 313 307 290 281 284 283 274 265 258 249 241 234 229 226 222 220 219 217 212 207 199 191 190 197 202 204 208 213 222 231 236 241 247 245 228 212 209 211 213 218 220 215 209 210 216 222 224 217 210 218 238 230 198 204 228 232 251 288 292 290 328 9 33 41 59 108 125
333 330 332 338 339 334 330 331 332 332 329 323 320 318 317 316 318 320 320 315 307 306 306 285 256 254 254 251 251 246 238 234 231 229 229 226 215 204 195 190 194 203 209 212 215 219 223 229 234 237 238 234 225 218 216 216 216 215 215 215 210 209 212 214 214 214 211 212 225 225 202 206 227 224 216 266 291 325 57 56 21 19 41 57 94
334 334 337 340 340 336 329 327 331 333 330 327 324 322 321 322 323 323 324 327 327 325 323 303 258 255 259 260 262 257 246 239 234 228 221 215 207 201 197 196 197 204 212 219 222 223 223 225 229 235 234 225 218 217 216 216 216 214 212 211 208 207 211 209 203 201 203 209 219 219 211 217 217 192 184 218 299 27 86 99 81 88 83 44 25
337 338 340 340 337 332 326 326 330 333 332 330 325 323 328 332 330 324 323 329 329 325 322 311 282 266 271 274 271 259 242 231 223 212 202 197 195 195 197 196 195 201 212 222 224 223 224 224 226 230 232 222 213 213 214 212 212 211 208 205 204 208 209 203 199 201 204 207 212 208 204 206 193 176 184 194 174 103 121 144 140 125 108 41 27
340 339 339 339 335 330 328 331 334 334 334 330 326 330 341 341 331 321 324 331 325 320 319 312 294 277 266 265 262 248 227 212 203 196 192 191 191 193 194 194 196 206 220 226 223 220 221 223 224 225 226 220 210 208 210 210 208 207 206 202 204 210 214 211 214 218 210 201 201 202 199 200 195 184 185 182 173 176 184 139 119 133 140 65 41
340 338 338 337 337 338 339 338 338 337 333 329 327 335 349 349 334 320 322 330 323 316 312 305 295 282 263 255 255 244 223 208 201 196 192 190 193 198 202 201 200 210 227 237 234 222 215 217 221 222 221 217 210 206 207 208 205 204 205 204 201 204 210 213 213 211 202 195 198 199 194 193 190 186 189 186 177 176 173 150 118 114 128 122 86
337 334 334 335 340 344 338 332 333 339 335 331 333 336 342 347 335 318 311 311 308 306 303 297 291 280 265 261 262 250 230 216 207 201 197 194 195 202 209 211 211 217 230 243 248 237 220 212 214 218 216 212 208 205 204 204 205 205 204 203 200 200 202 200 198 198 197 194 193 195 194 193 193 196 199 192 180 168 165 166 160 137 130 138 142
331 330 331 331 334 336 329 322 325 332 329 330 339 342 340 340 333 322 316 309 296 288 295 298 291 280 271 267 262 246 229 218 208 201 198 196 197 204 215 224 227 229 235 242 249 250 237 219 211 214 213 207 204 203 200 201 205 207 204 201 200 199 200 198 197 199 198 193 190 190 187 187 194 201 193 181 179 182 183 178 176 171 160 156 157
324 326 330 328 328 331 329 321 313 309 309 316 330 339 345 346 336 324 321 317 305 287 281 289 289 281 272 264 251 232 221 217 213 208 205 206 209 218 228 231 231 234 239 243 247 251 247 229 215 213 212 204 201 203 204 203 205 207 205 204 202 200 200 200 200 202 204 200 198 199 194 188 191 197 187 176 179 191 194 181 169 164 161 162 163
323 323 328 327 326 330 332 329 322 319 320 322 320 320 333 343 345 344 336 326 315 301 285 281 286 284 271 252 235 223 220 220 220 220 222 222 222 226 232 235 236 239 242 244 246 248 244 231 217 213 214 209 205 208 210 209 209 209 208 206 205 203 200 201 204 209 208 199 196 204 206 197 190 192 193 189 187 187 185 179 172 171 175 179 177
321 318 325 327 326 328 330 331 332 334 335 333 328 324 325 328 337 3 7 346 326 319 319 307 293 289 276 253 237 229 228 229 226 224 226 227 226 228 234 239 242 246 246 245 244 240 234 225 216 211 211 210 207 207 207 206 208 210 210 209 210 207 203 202 208 214 207 194 196 209 208 194 187 190 192 189 187 185 184 184 186 185 179 172 166
318 314 322 325 324 324 325 326 329 333 334 332 333 336 332 324 328 356 3 353 331 318 316 302 282 278 274 266 259 247 238 235 232 228 226 225 224 228 237 245 252 255 252 245 240 233 223 216 211 209 208 207 204 202 203 202 203 207 208 209 213 212 207 204 205 205 195 189 194 203 195 186 188 193 188 185 191 196 191 186 187 183 171 161 159
316 313 319 323 323 323 323 324 325 329 330 330 333 336 336 334 343 3 0 352 334 310 297 281 269 267 257 254 266 267 255 245 240 236 234 232 228 231 242 257 270 275 266 249 233 221 214 211 208 206 207 207 204 204 205 205 207 208 207 206 211 215 213 206 203 204 201 193 188 189 189 189 192 191 179 176 186 190 180 174 178 182 174 164 166
311 313 321 325 324 324 324 325 327 329 331 333 334 334 334 337 350 5 0 354 342 321 303 283 265 260 250 243 256 268 265 256 247 243 244 246 242 242 250 263 274 287 295 273 234 214 207 206 205 205 207 207 206 210 211 208 209 212 209 204 207 216 217 208 203 208 212 203 192 187 190 192 195 196 188 179 179 180 174 169 172 178 174 168 170
308 316 324 325 324 324 325 330 333 333 333 335 336 334 334 338 345 352 357 2 0 349 335 324 308 283 266 262 266 265 262 261 256 246 243 247 249 249 254 263 269 279 300 298 236 209 204 202 200 203 208 209 210 215 216 211 210 214 213 208 207 210 211 206 204 208 211 202 191 187 188 190 193 197 194 186 181 183 182 178 175 175 175 173 174
310 321 326 326 327 330 334 338 337 333 334 338 338 335 337 344 349 352 356 2 3 2 1 5 8 359 318 287 290 287 269 261 260 257 252 253 257 254 254 261 266 268 280 296 235 196 197 199 200 202 209 212 213 218 222 218 215 217 217 213 209 207 207 207 205 203 199 193 189 187 188 188 186 185 184 183 182 183 183 181 179 177 176 176 175
323 334 336 336 339 341 343 345 341 337 340 343 340 339 345 352 354 356 357 356 357 3 9 12 15 17 5 324 298 313 326 312 288 277 270 269 273 266 256 257 260 255 254 263 257 195 186 194 200 206 212 215 217 220 224 223 219 217 218 216 212 210 211 211 209 203 195 189 187 187 191 192 188 182 180 181 182 182 182 180 179 176 175 174 174